Location: Boiro
(42.6475°N, 8.8834°W)
Time: 18:11:44
(UTC+01:00)

Altair - Pass Details

Date: 07 December 2021
Orbit: 1501 x 1683 km, 47.2° (Epoch: 25 January)

Event Time Altitude Azimuth Distance (km) Brightness Sun altitude
Rises 19:08:06 0° 276° (W) 4,749 11.3 -11.8°
Reaches altitude 10° 19:11:16 10° 279° (W) 3,742 10.6 -12.4°
Maximum altitude 19:20:39 67° 2° (N) 1,632 7.5 -14.0°
Enters shadow 19:27:38 19° 81° (E) 2,989 8.4 -15.2°
Drops below altitude 10° 19:29:47 10° 84° (E) 3,654 - -15.6°
Sets 19:32:50 0° 88° (E) 4,632 - -16.1°
